Location: Caltech
(34.1382°N, 118.1253°W)
Time: 17:57:03
(UTC-07:00)

SL-16 R/B - Visible Passes

Search period start: 24 August 2016 00:00
Search period end: 03 September 2016 00:00
Orbit: 842 x 846 km, 71.0° (Epoch: 24 August)

Date Brightness Start Highest point End Pass type
(mag) Time Alt. Az. Time Alt. Az. Time Alt. Az.
24 Aug 5.0 00:49:50 11° NNW 00:49:50 11° NNW 00:50:09 10° NNW visible
24 Aug 4.5 22:53:37 15° NNE 22:53:37 15° NNE 22:54:33 10° NNE visible
25 Aug 5.0 00:35:26 11° NW 00:35:26 11° NW 00:36:06 10° NNW visible
25 Aug 4.4 22:39:10 16° NNE 22:39:10 16° NNE 22:40:18 10° NNE visible
26 Aug 5.0 00:20:59 12° NW 00:20:59 12° NW 00:22:01 10° NNW visible
26 Aug 4.2 22:24:36 18° NNE 22:24:36 18° NNE 22:26:03 10° NNE visible
27 Aug 4.9 00:06:25 13° NW 00:06:25 13° NW 00:07:56 10° NNW visible
27 Aug 3.9 22:09:54 22° NNE 22:09:54 22° NNE 22:11:48 10° NNE visible
27 Aug 4.8 23:51:41 14° NW 23:51:41 14° NW 23:53:49 10° NNW visible
28 Aug 3.5 21:54:57 28° NNE 21:54:57 28° NNE 21:57:32 10° NNE visible
28 Aug 4.7 23:36:44 15° NW 23:36:44 15° NW 23:39:41 10° NNW visible
29 Aug 2.9 21:39:37 40° NE 21:39:37 40° NE 21:43:16 10° NNE visible
29 Aug 4.7 23:21:21 15° WNW 23:22:14 16° NW 23:25:34 10° NNW visible
30 Aug 2.1 21:23:21 64° ESE 21:23:24 64° ESE 21:29:01 10° NNE visible
30 Aug 4.7 23:04:57 11° W 23:07:57 16° NW 23:11:25 10° NNW visible
31 Aug 2.1 21:03:36 10° S 21:09:10 61° ESE 21:14:45 10° NNE visible
31 Aug 4.7 22:50:06 10° W 22:53:41 17° NW 22:57:17 10° NNW visible
01 Sep 5.1 06:03:17 10° NNE 06:06:42 16° NE 06:10:04 10° E visible
01 Sep 2.2 20:49:23 10° S 20:54:55 58° ESE 21:00:29 10° NNE visible
01 Sep 4.7 22:35:42 10° W 22:39:24 18° WNW 22:43:07 10° NNW visible
02 Sep 5.2 05:49:09 10° NNE 05:52:25 15° NE 05:55:39 10° E visible
02 Sep 2.2 20:35:11 10° S 20:40:41 56° ESE 20:46:14 10° NNE visible
02 Sep 4.7 22:21:19 10° W 22:25:08 18° WNW 22:28:58 10° NNW visible
